View from above orbital plane
|
View from above satellite
|
Ground track
|
The orbit data is extracted from the following two-line orbital elements,
1 35933U 09051C 22179.52603825 .00000324 00000-0 83206-4 0 9992
2 35933 98.5617 37.3948 0006491 36.3569 323.8068 14.56892498677788
Epoch (UTC): | 28 June 2022 12:37:29 |
Eccentricity: | 0.0006491 |
inclination: | 98.5617° |
perigee height: | 698 km |
apogee height: | 708 km |
right ascension of ascending node: | 37.3948° |
argument of perigee: | 36.3569° |
revolutions per day: | 14.56892498 |
mean anomaly at epoch: | 323.8068° |
orbit number at epoch: | 67778 |
The dashed part of the orbit path shows where the satellite is in the earth's shadow,
|
|